Flag for Switzerland Weather past 2 weeks in Ostermundigen, Bern, Switzerland

Now
72 °F

Passing clouds.


Feels Like: 77 °F
Forecast: 53 / 62 °F
Wind: 12 mph from West

Location: Bern / Belp

Current Time: Jul 28, 2015 at 6:23:25 PM

Latest Report: Jul 28, 2015 at 5:50 PM


Visibility: N/A

Pressure: 29.86 "Hg (28.00 "Hg at 556m altitude)

Humidity: 47%

Dew point: 50 °F

Location of OstermundigenLocation

Historic Weather in Ostermundigen — Graph

°F

Ostermundigen temperature yesterday

Maximum temperature yesterday: 75 °F (at 2:20 PM)
Minimum temperature yesterday: 55 °F (at 5:20 AM)
Average temperature yesterday: 66 °F

Past Weeks' High & Low Weather Summary

 TemperatureHumidityPressure
High93 °F (Jul 16, 4:20 PM)100% (Jul 14, 4:20 AM)30.21 "Hg (Jul 14, 4:20 AM)
Low48 °F (Jul 26, 4:20 AM)20% (Jul 16, 4:50 PM)29.74 "Hg (Jul 24, 5:20 PM)
Average71 °F67%30.01 "Hg
* Reported Jul 13 5:20 PM — Jul 28 5:20 PM, Ostermundigen, Weather by CustomWeather, © 2015

Note: Actual official high and low records may vary slightly from our data, if they occured in-between our weather recording intervals... More about our weather records

Advertising

Ostermundigen weather history for previous 24 hours

 ConditionsComfort  
Time TempWeatherWind HumidityBarometerVisibility
5:20 PM
Tue, Jul 28
72 °FPassing clouds.13 mph47%29.86 "HgN/A
4:50 PM73 °FScattered clouds.14 mph44%29.86 "HgN/A
4:20 PM73 °FScattered clouds.12 mph44%29.89 "HgN/A
3:50 PM73 °FScattered clouds.16 mph44%29.89 "HgN/A
3:20 PM72 °FScattered clouds.9 mph50%29.89 "HgN/A
2:50 PM72 °FScattered clouds.10 mph47%29.89 "HgN/A
2:20 PM70 °FScattered clouds.13 mph50%29.89 "HgN/A
1:50 PM70 °FPartly sunny.12 mph50%29.92 "HgN/A
1:20 PM68 °FPartly sunny.12 mph49%29.92 "HgN/A
12:50 PM66 °FPartly sunny.14 mph52%29.92 "HgN/A
12:20 PM66 °FBroken clouds.12 mph52%29.92 "HgN/A
11:50 AM66 °FPartly sunny.13 mph56%29.92 "HgN/A
11:20 AM66 °FPartly sunny.12 mph60%29.92 "HgN/A
10:50 AM64 °FBroken clouds.13 mph60%29.92 "HgN/A
10:20 AM64 °FBroken clouds.12 mph60%29.92 "HgN/A
9:50 AM63 °FBroken clouds.9 mph59%29.95 "HgN/A
9:20 AM63 °FPartly sunny.8 mph59%29.95 "HgN/A
8:50 AM64 °FPartly sunny.8 mph60%29.92 "HgN/A
8:20 AM63 °FScattered clouds.7 mph64%29.92 "HgN/A
7:50 AM63 °FScattered clouds.12 mph64%29.92 "HgN/A
7:20 AM63 °FScattered clouds.7 mph64%29.92 "HgN/A
6:50 AM61 °FPassing clouds.6 mph68%29.89 "HgN/A
6:20 AM63 °FPassing clouds.3 mph64%29.92 "HgN/A
5:50 AM63 °FPassing clouds.3 mph64%29.92 "HgN/A
5:20 AM63 °FPassing clouds.6 mph64%29.92 "HgN/A
4:50 AM63 °FPassing clouds.5 mph64%29.89 "HgN/A
4:20 AM63 °FMostly cloudy.2 mph64%29.89 "HgN/A
3:50 AM63 °FPassing clouds.2 mph64%29.89 "HgN/A
3:20 AM64 °FPassing clouds.6 mph60%29.92 "HgN/A
2:50 AM61 °FPassing clouds.2 mph72%29.92 "HgN/A
2:20 AM61 °FPassing clouds.2 mph72%29.92 "HgN/A
1:50 AM64 °FPassing clouds.3 mph60%29.92 "HgN/A
1:20 AM66 °FPassing clouds.1 mph56%29.92 "HgN/A
12:50 AM66 °FPartly cloudy.6 mph56%29.92 "HgN/A
11:20 PM
Mon, Jul 27
66 °FPassing clouds.5 mph56%29.92 "HgN/A
10:50 PM68 °FPassing clouds.3 mph53%29.92 "HgN/A
10:20 PM66 °FPassing clouds.6 mph60%29.92 "HgN/A
9:50 PM66 °FScattered clouds.6 mph60%29.89 "HgN/A
9:20 PM68 °FScattered clouds.8 mph56%29.89 "HgN/A
8:50 PM70 °FScattered clouds.9 mph53%29.89 "HgN/A
8:20 PM70 °FScattered clouds.14 mph53%29.89 "HgN/A
7:50 PM72 °FScattered clouds.12 mph50%29.86 "HgN/A
7:20 PM73 °FScattered clouds.9 mph47%29.86 "HgN/A
6:50 PM73 °FPassing clouds.9 mph44%29.86 "HgN/A
6:20 PM73 °FScattered clouds.10 mph44%29.86 "HgN/A
Weather by CustomWeather, © 2015

See weather overviewHow to use our weather pages